When you browse on this site, cookies collect data to enhance your experience and personalize the content and advertising you see.
Visit our Privacy Policy to learn more. By continuing to use the site, you agree to this use of cookies and data.
  • en Suisse
  • Liste des pays
  • À 7 jours
  • Température de l'eau
  • Carte satellitaire
  • Carte météo
  • Widgets météo
  • user-avatar
    Se connecter

    Météo par heure à Ramadi

    Ce jour, 17 Décembre, Lundi

    Heure Température Précipitation Vent Pression Humidité
    00:00 +17°C° 0 mm 3 m/s 762 mmHg 42%
    01:00 +17°C° 0.1 mm 3 m/s 762 mmHg 45%
    02:00 +15°C° 0.1 mm 4 m/s 762 mmHg 48%
    03:00 +15°C° 0 mm 4 m/s 761 mmHg 52%
    04:00 +14°C° 0.3 mm 5 m/s 761 mmHg 56%
    05:00 +14°C° 0.3 mm 5 m/s 761 mmHg 60%
    06:00 +13°C° 0.3 mm 5 m/s 761 mmHg 64%
    07:00 +14°C° 0.2 mm 6 m/s 760 mmHg 61%
    08:00 +14°C° 0.2 mm 6 m/s 760 mmHg 59%
    09:00 +14°C° 0 mm 6 m/s 760 mmHg 55%
    10:00 +14°C° 1 mm 6 m/s 760 mmHg 58%
    11:00 +14°C° 1 mm 6 m/s 759 mmHg 60%
    12:00 +14°C° 1 mm 6 m/s 759 mmHg 63%
    13:00 +15°C° 0.5 mm 6 m/s 758 mmHg 59%
    14:00 +15°C° 0.5 mm 6 m/s 758 mmHg 56%
    15:00 +16°C° 0 mm 6 m/s 757 mmHg 54%
    16:00 +16°C° 0.1 mm 5 m/s 757 mmHg 56%
    17:00 +16°C° 0.1 mm 5 m/s 757 mmHg 57%
    18:00 +17°C° 0.1 mm 4 m/s 757 mmHg 59%
    19:00 +15°C° 0.1 mm 4 m/s 758 mmHg 60%
    20:00 +16°C° 0.1 mm 3 m/s 758 mmHg 62%
    21:00 +16°C° 0.1 mm 3 m/s 758 mmHg 63%
    22:00 +16°C° 0.1 mm 2 m/s 758 mmHg 64%
    23:00 +15°C° 0.1 mm 2 m/s 759 mmHg 66%

    Demain, 18 Décembre, Mardi

    Heure Température Précipitation Vent Pression Humidité
    00:00 +15°C° 0.1 mm 2 m/s 759 mmHg 68%
    01:00 +15°C° 0 mm 2 m/s 759 mmHg 69%
    02:00 +14°C° 0 mm 2 m/s 759 mmHg 70%
    03:00 +14°C° 0 mm 2 m/s 759 mmHg 72%
    04:00 +14°C° 0 mm 2 m/s 760 mmHg 73%
    05:00 +14°C° 0 mm 2 m/s 760 mmHg 74%
    06:00 +13°C° 0 mm 2 m/s 761 mmHg 76%
    07:00 +14°C° 0 mm 2 m/s 761 mmHg 74%
    08:00 +15°C° 0 mm 2 m/s 761 mmHg 72%
    09:00 +15°C° 0 mm 2 m/s 762 mmHg 71%
    10:00 +16°C° 0 mm 2 m/s 762 mmHg 67%
    11:00 +18°C° 0 mm 1 m/s 762 mmHg 64%
    12:00 +19°C° 0 mm 1 m/s 762 mmHg 61%
    13:00 +19°C° 0 mm 1 m/s 762 mmHg 59%
    14:00 +19°C° 0 mm 1 m/s 762 mmHg 57%
    15:00 +20°C° 0 mm 1 m/s 762 mmHg 56%
    16:00 +19°C° 0 mm 1 m/s 762 mmHg 59%
    17:00 +19°C° 0 mm 1 m/s 762 mmHg 62%
    18:00 +16°C° 0 mm 0 m/s 762 mmHg 64%
    19:00 +18°C° 0 mm 1 m/s 763 mmHg 66%
    20:00 +18°C° 0 mm 1 m/s 763 mmHg 67%
    21:00 +16°C° 0 mm 1 m/s 763 mmHg 69%
    22:00 +16°C° 0 mm 1 m/s 763 mmHg 70%
    23:00 +16°C° 0 mm 1 m/s 763 mmHg 71%

    Après-demain, 19 Décembre, Mercredi

    Heure Température Précipitation Vent Pression Humidité
    00:00 +16°C° 0 mm 2 m/s 763 mmHg 72%
    01:00 +15°C° 0 mm 2 m/s 763 mmHg 74%
    02:00 +15°C° 0 mm 2 m/s 763 mmHg 76%
    03:00 +15°C° 0 mm 2 m/s 763 mmHg 78%
    04:00 +15°C° 0 mm 2 m/s 763 mmHg 79%
    05:00 +14°C° 0 mm 2 m/s 762 mmHg 81%
    06:00 +14°C° 0 mm 2 m/s 762 mmHg 82%
    07:00 +15°C° 0 mm 2 m/s 762 mmHg 80%
    08:00 +15°C° 0 mm 2 m/s 762 mmHg 77%
    09:00 +16°C° 0 mm 2 m/s 763 mmHg 75%
    10:00 +17°C° 0 mm 2 m/s 762 mmHg 70%
    11:00 +18°C° 0 mm 2 m/s 762 mmHg 64%
    12:00 +19°C° 0 mm 2 m/s 762 mmHg 59%
    13:00 +19°C° 0 mm 2 m/s 761 mmHg 56%
    14:00 +20°C° 0 mm 3 m/s 760 mmHg 53%
    15:00 +20°C° 0 mm 3 m/s 760 mmHg 51%
    16:00 +20°C° 0 mm 3 m/s 760 mmHg 53%
    17:00 +19°C° 0 mm 3 m/s 760 mmHg 55%
    18:00 +18°C° 0 mm 3 m/s 759 mmHg 57%
    19:00 +18°C° 0 mm 3 m/s 759 mmHg 57%
    20:00 +18°C° 0 mm 3 m/s 759 mmHg 57%
    21:00 +18°C° 0 mm 4 m/s 759 mmHg 57%
    22:00 +18°C° 0 mm 4 m/s 759 mmHg 58%
    23:00 +18°C° 0 mm 4 m/s 758 mmHg 59%

    20 Décembre, Jeudi

    Heure Température Précipitation Vent Pression Humidité
    00:00 +18°C° 0 mm 4 m/s 758 mmHg 60%
    01:00 +18°C° 0.2 mm 4 m/s 758 mmHg 62%
    02:00 +17°C° 0.2 mm 4 m/s 758 mmHg 64%
    03:00 +17°C° 0.2 mm 4 m/s 758 mmHg 66%
    04:00 +17°C° 0 mm 4 m/s 757 mmHg 66%
    05:00 +17°C° 0 mm 4 m/s 757 mmHg 67%
    06:00 +16°C° 0 mm 3 m/s 757 mmHg 68%
    07:00 +17°C° 0 mm 3 m/s 758 mmHg 65%
    08:00 +17°C° 0 mm 4 m/s 758 mmHg 62%
    09:00 +17°C° 0 mm 4 m/s 758 mmHg 60%
    10:00 +18°C° 0 mm 4 m/s 758 mmHg 54%
    11:00 +19°C° 0 mm 4 m/s 758 mmHg 49%
    12:00 +20°C° 0 mm 4 m/s 758 mmHg 44%
    13:00 +20°C° 0 mm 4 m/s 757 mmHg 42%
    14:00 +21°C° 0 mm 4 m/s 757 mmHg 41%
    15:00 +21°C° 0 mm 4 m/s 757 mmHg 39%
    16:00 +20°C° 0 mm 4 m/s 757 mmHg 42%
    17:00 +19°C° 0 mm 3 m/s 758 mmHg 45%
    18:00 +18°C° 0 mm 2 m/s 758 mmHg 48%
    19:00 +18°C° 0 mm 2 m/s 758 mmHg 49%
    20:00 +18°C° 0 mm 2 m/s 759 mmHg 50%
    21:00 +17°C° 0 mm 2 m/s 759 mmHg 51%
    22:00 +17°C° 0 mm 2 m/s 759 mmHg 52%
    23:00 +17°C° 0 mm 2 m/s 759 mmHg 53%

    21 Décembre, Vendredi

    Heure Température Précipitation Vent Pression Humidité
    00:00 +16°C° 0 mm 2 m/s 759 mmHg 54%
    01:00 +16°C° 0 mm 2 m/s 759 mmHg 55%
    02:00 +16°C° 0 mm 3 m/s 759 mmHg 57%
    03:00 +14°C° 0 mm 3 m/s 760 mmHg 58%
    04:00 +14°C° 0 mm 3 m/s 760 mmHg 61%
    05:00 +14°C° 0 mm 3 m/s 760 mmHg 64%
    06:00 +14°C° 0 mm 3 m/s 760 mmHg 66%
    07:00 +14°C° 0 mm 3 m/s 760 mmHg 65%
    08:00 +16°C° 0 mm 3 m/s 761 mmHg 64%
    09:00 +16°C° 0 mm 3 m/s 761 mmHg 63%
    10:00 +17°C° 0 mm 4 m/s 761 mmHg 59%
    11:00 +18°C° 0 mm 4 m/s 761 mmHg 55%
    12:00 +19°C° 0 mm 4 m/s 761 mmHg 51%
    13:00 +19°C° 0 mm 4 m/s 761 mmHg 50%
    14:00 +19°C° 0 mm 4 m/s 760 mmHg 48%
    15:00 +19°C° 0 mm 4 m/s 760 mmHg 46%
    16:00 +19°C° 0 mm 4 m/s 760 mmHg 48%
    17:00 +18°C° 0 mm 3 m/s 760 mmHg 50%
    18:00 +18°C° 0 mm 3 m/s 761 mmHg 53%
    19:00 +17°C° 0 mm 3 m/s 761 mmHg 54%
    20:00 +17°C° 0 mm 3 m/s 761 mmHg 56%
    21:00 +16°C° 0 mm 3 m/s 761 mmHg 58%
    22:00 +16°C° 0 mm 3 m/s 761 mmHg 60%
    23:00 +14°C° 0 mm 3 m/s 761 mmHg 63%

    22 Décembre, Samedi

    Heure Température Précipitation Vent Pression Humidité
    00:00 +14°C° 0 mm 4 m/s 761 mmHg 65%
    01:00 +14°C° 0 mm 4 m/s 761 mmHg 67%
    02:00 +13°C° 0 mm 4 m/s 761 mmHg 69%
    03:00 +13°C° 0 mm 4 m/s 761 mmHg 71%
    04:00 +13°C° 0 mm 4 m/s 761 mmHg 72%
    05:00 +13°C° 0 mm 4 m/s 761 mmHg 73%
    06:00 +12°C° 0 mm 4 m/s 760 mmHg 74%
    07:00 +13°C° 0 mm 4 m/s 761 mmHg 72%
    08:00 +13°C° 0 mm 4 m/s 761 mmHg 69%
    09:00 +14°C° 0 mm 4 m/s 761 mmHg 67%
    10:00 +15°C° 0 mm 4 m/s 761 mmHg 62%
    11:00 +17°C° 0 mm 4 m/s 761 mmHg 58%
    12:00 +18°C° 0 mm 4 m/s 760 mmHg 53%
    13:00 +18°C° 0 mm 4 m/s 760 mmHg 50%
    14:00 +18°C° 0 mm 4 m/s 760 mmHg 48%
    15:00 +19°C° 0 mm 5 m/s 759 mmHg 45%
    16:00 +18°C° 0 mm 4 m/s 760 mmHg 47%
    17:00 +17°C° 0 mm 3 m/s 760 mmHg 49%
    18:00 +17°C° 0 mm 3 m/s 760 mmHg 51%
    19:00 +16°C° 0 mm 3 m/s 760 mmHg 52%
    20:00 +16°C° 0 mm 3 m/s 760 mmHg 53%
    21:00 +16°C° 0 mm 3 m/s 761 mmHg 53%
    22:00 +14°C° 0 mm 3 m/s 761 mmHg 54%
    23:00 +14°C° 0 mm 3 m/s 761 mmHg 55%
    Voir plus